User: anonymous   Login
Location: Lynch Observatory
(39.9540°N, 75.1861°W)
Time: 18:57:30
(UTC-04:00)
Language:

UKube-1 - Orbit

View from above orbital plane
View from above orbital plane
View from above satellite
View from above satellite

Ground track
Ground track

The orbit data is extracted from the following two-line orbital elements,

1 40074U 14037F   24115.59933172  .00014291  00000-0  13860-2 0  9999
2 40074  98.3426  42.2781 0002468 228.2688 131.8318 14.92786999530781
Epoch (UTC): 24 April 2024 14:23:02
Eccentricity: 0.0002468
inclination: 98.3426°
perigee height: 587 km
apogee height: 591 km
right ascension of ascending node: 42.2781°
argument of perigee: 228.2688°
revolutions per day: 14.92786999
mean anomaly at epoch: 131.8318°
orbit number at epoch: 53078

The dashed part of the orbit path shows where the satellite is in the earth's shadow,  

DLR